Location: NJAA Observatory
(40.6819°N, 74.8979°W)
Time: 01:58:30
(UTC-04:00)

Landsat 5 - Visible Passes

Search period start: 17 August 2017 00:00
Search period end: 27 August 2017 00:00
Orbit: 530 x 656 km, 98.0° (Epoch: 15 August)

Date Brightness Start Highest point End Pass type
(mag) Time Alt. Az. Time Alt. Az. Time Alt. Az.
17 Aug 6.3 01:46:09 15° NNW 01:46:09 15° NNW 01:46:54 10° NNW visible
18 Aug 6.3 01:55:17 13° NNW 01:55:17 13° NNW 01:55:51 10° NNW visible
19 Aug 6.6 00:27:50 10° NNE 00:27:50 10° NNE 00:27:51 10° NNE visible
19 Aug 6.4 02:04:26 12° NNW 02:04:26 12° NNW 02:04:46 10° NNW visible
20 Aug 6.5 00:36:58 11° NNE 00:36:58 11° NNE 00:37:17 10° NNE visible
20 Aug 6.5 02:13:35 10° NNW 02:13:35 10° NNW 02:13:38 10° NNW visible
21 Aug 6.5 00:46:07 12° NNE 00:46:07 12° NNE 00:46:36 10° NNE visible
22 Aug 6.5 00:55:16 13° NNE 00:55:16 13° NNE 00:55:49 10° N visible
23 Aug 6.5 01:04:25 13° N 01:04:25 13° N 01:05:00 10° N visible
24 Aug 6.6 01:13:34 13° N 01:13:34 13° N 01:14:08 10° N visible
25 Aug 6.6 01:22:43 13° N 01:22:43 13° N 01:23:13 10° N visible
26 Aug 6.6 01:31:53 12° N 01:31:53 12° N 01:32:16 10° N visible
